CDT,Max TemperatureF,Mean TemperatureF,Min TemperatureF,Max Dew PointF,MeanDew PointF,Min DewpointF,Max Humidity, Mean Humidity, Min Humidity, Max Sea Level PressureIn, Mean Sea Level PressureIn, Min Sea Level PressureIn, Max VisibilityMiles, Mean VisibilityMiles, Min VisibilityMiles, Max Wind SpeedMPH, Mean Wind SpeedMPH, Max Gust SpeedMPH,PrecipitationIn, CloudCover, Events, WindDirDegrees
2012-10-1,80,70,60,61,55,46,94,64,32,29.86,29.81,29.77,10,10,9,21,11,29,0.00,1,,332
2012-10-2,78,69,60,57,54,50,82,66,39,29.97,29.92,29.86,10,10,10,12,8,,0.00,0,,315
2012-10-3,82,68,55,59,55,50,100,66,32,30.06,30.01,29.96,10,10,10,15,5,24,0.00,0,,158
2012-10-4,87,72,57,63,58,55,94,65,35,30.20,30.12,30.07,10,10,10,17,9,24,0.00,1,,138
2012-10-5,78,66,55,70,60,48,88,76,57,30.12,30.08,30.02,10,10,10,20,10,25,0.00,5,,259
2012-10-6,55,50,44,48,42,36,88,71,54,30.28,30.19,30.12,10,10,10,18,12,22,0.00,8,,33
2012-10-7,57,50,44,41,37,34,81,60,44,30.31,30.26,30.20,10,10,10,13,8,17,0.00,7,,7
2012-10-8,64,52,39,43,38,36,93,62,34,30.28,30.20,30.11,10,10,10,12,4,,0.00,0,,147
2012-10-9,71,58,46,63,53,43,93,79,60,30.12,30.03,29.91,10,10,10,18,10,23,0.00,6,,149
2012-10-10,71,66,60,61,57,54,88,73,53,30.21,30.13,30.03,10,10,10,17,10,22,0.00,7,,91
2012-10-11,82,72,62,70,63,55,88,78,65,30.20,30.15,30.10,10,10,10,13,10,,0.00,6,,143
2012-10-12,84,74,66,70,67,63,100,82,62,30.22,30.16,30.12,10,10,4,13,8,18,0.00,4,,167
2012-10-13,87,74,62,70,65,61,100,77,46,30.12,30.01,29.86,10,10,9,28,12,34,0.10,5,Thunderstorm,164
2012-10-14,80,68,57,63,56,52,100,70,39,30.09,30.00,29.88,10,10,0,32,13,38,0.90,1,Thunderstorm,290
2012-10-15,82,66,51,54,48,39,88,55,21,30.13,30.06,29.98,10,10,10,10,4,,0.00,0,,237
2012-10-16,73,63,53,59,52,46,94,70,50,30.01,29.86,29.72,10,10,10,20,8,23,0.00,1,,173
2012-10-17,87,72,59,70,59,48,100,71,33,29.81,29.65,29.53,10,10,5,24,13,36,0.00,5,,225
2012-10-18,73,60,48,48,34,27,71,41,18,30.01,29.93,29.82,10,10,10,20,10,29,0.00,0,,312
2012-10-19,73,60,46,36,32,27,62,37,18,30.00,29.94,29.89,10,10,10,18,9,25,0.00,0,,281
2012-10-20,84,64,44,63,50,34,81,58,32,29.93,29.86,29.78,10,10,10,22,8,26,0.00,1,,168
2012-10-21,86,76,66,72,66,57,88,73,58,29.93,29.89,29.83,10,10,10,22,12,31,0.00,5,,163
2012-10-22,84,76,69,70,68,64,94,78,58,30.04,29.98,29.93,10,10,10,21,12,26,0.00,5,,172
2012-10-23,82,74,66,66,65,63,94,75,58,30.01,29.97,29.93,10,10,10,20,11,24,0.00,4,,174
2012-10-24,84,73,62,68,64,61,100,77,51,30.03,29.95,29.88,10,10,9,18,10,24,0.00,2,,162
2012-10-25,80,66,51,70,60,43,100,81,61,30.07,29.93,29.85,10,10,7,25,14,34,0.03,7,,223
2012-10-26,55,50,44,43,39,32,76,65,50,30.32,30.21,30.08,10,10,10,23,15,28,0.01,5,,357
2012-10-27,57,45,33,34,31,28,87,59,33,30.34,30.25,30.17,10,10,10,14,10,17,0.00,0,,357
2012-10-28,60,48,35,36,28,19,87,57,22,30.30,30.24,30.20,10,10,9,14,9,22,0.00,0,,359
2012-10-29,64,50,37,32,29,27,75,48,24,30.35,30.24,30.15,10,9,1,16,4,,0.00,0,,79
2012-10-30,75,58,41,43,37,30,76,49,27,30.15,30.04,29.95,10,10,2,13,6,20,0.00,0,,199
2012-10-31,78,63,48,48,45,43,87,63,30,30.03,29.98,29.94,10,10,5,9,5,,0.00,0,,269